[Date Prev][Date Next][Thread Prev][Thread Next] - [Date Index][Thread Index][Author Index]

2 Line ISS Keps 1-27



ISS
1 25544U 98067A   06026.82238319  .00011052  00000-0  79201-4 0  2265
2 25544 051.6428 194.4318 0009617 199.1790 300.1870 15.74251821410883
----
Via the sarex mailing list at AMSAT.ORG courtesy of AMSAT-NA.
To unsubscribe, send "unsubscribe sarex" to Majordomo@amsat.org



AMSAT Top AMSAT Home